User: anonymous   Login
Location: Dover
(39.1580°N, 75.5250°W)
Time: 14:01:23
(UTC-04:00)
Language:

Cosmos 1437 Rocket - Orbit

View from above orbital plane
View from above orbital plane
View from above satellite
View from above satellite

Ground track
Ground track

The orbit data is extracted from the following two-line orbital elements,

1 13771U 83003B   16148.10438767  .00000964  00000-0  57758-4 0  9994
2 13771  81.1457  88.0262 0042683 200.7018 159.2481 15.09292548815542
Epoch (UTC): 27 May 2016 02:30:19
Eccentricity: 0.0042683
inclination: 81.1457°
perigee height: 509 km
apogee height: 568 km
right ascension of ascending node: 88.0262°
argument of perigee: 200.7018°
revolutions per day: 15.09292548
mean anomaly at epoch: 159.2481°
orbit number at epoch: 81554

The dashed part of the orbit path shows where the satellite is in the earth's shadow,  

DLR